M I D A S
Marine Information and Data Acquisition System
Tripno 1609 of the Zeeleeuw from 2008-11-12 08:00:00 to 2008-11-12 17:00:00
Back to CruiseResearch ActivitiesStationsMapUnderway DataData graphs

EquipmentUnitsComment
TimeDGPSUTC
LatitudeDGPSDM.mWGS84
LongitudeDGPSDM.mWGS84
HeadingGyrodeg 
SOGDGPSknotsSpeed over ground
COGDGPSdegCourse over ground
DepthEcho soundermeters200 kHz
Missing or incorrect values are displayed as -999
Navigation data collected by the RV Zeeleeuw from 2008-11-12 08:00:00 to 2008-11-12 17:00:00
                                                                                    Next 1000 lines
Time Latitude Longitude Heading SOG COG Depth
2008-11-12 08:00:20 51°13.624 2°56.048 123   79 -999
2008-11-12 08:00:30 51°13.624 2°56.049 123   79 -999
2008-11-12 08:00:40 51°13.624 2°56.048 123   79 -999
2008-11-12 08:00:50 51°13.624 2°56.048 123   79 -999
2008-11-12 08:01:00 51°13.624 2°56.048 123   212 -999
2008-11-12 08:01:10 51°13.624 2°56.048 123   212 -999
2008-11-12 08:01:20 51°13.624 2°56.048 123   212 -999
2008-11-12 08:01:30 51°13.624 2°56.048 123   212 -999
2008-11-12 08:01:40 51°13.624 2°56.048 123   212 -999
2008-11-12 08:01:50 51°13.624 2°56.048 123   212 -999
2008-11-12 08:02:00 51°13.624 2°56.048 122.5   176 -999
2008-11-12 08:02:10 51°13.623 2°56.048 122.5   176 -999
2008-11-12 08:02:20 51°13.623 2°56.048 122.5   176 -999
2008-11-12 08:02:30 51°13.623 2°56.048 122.5   176 -999
2008-11-12 08:02:40 51°13.623 2°56.048 122.5   176 -999
2008-11-12 08:02:50 51°13.623 2°56.048 122.5   176 -999
2008-11-12 08:03:00 51°13.624 2°56.048 124.5   104 -999
2008-11-12 08:03:10 51°13.624 2°56.048 124.5   104 -999
2008-11-12 08:03:20 51°13.624 2°56.048 124.5   104 -999
2008-11-12 08:03:30 51°13.624 2°56.048 124.5   104 -999
2008-11-12 08:03:40 51°13.624 2°56.048 124.5   104 -999
2008-11-12 08:03:50 51°13.624 2°56.048 124.5   104 -999
2008-11-12 08:04:00 51°13.624 2°56.048 123.4   7 -999
2008-11-12 08:04:10 51°13.624 2°56.048 123.4   7 -999
2008-11-12 08:04:14 51°13.624 2°56.048 122.6 0.1 325 -999
2008-11-12 08:04:19 51°13.624 2°56.048 122.3 0.1 290 -999
2008-11-12 08:04:20 51°13.624 2°56.048 123.4   7 -999
2008-11-12 08:04:24 51°13.624 2°56.047 122 0.1 303 -999
2008-11-12 08:04:30 51°13.624 2°56.047 123.4   7 -999
2008-11-12 08:04:40 51°13.624 2°56.047 123.4   7 -999
2008-11-12 08:04:49 51°13.624 2°56.048 123.4 0.1 145 -999
2008-11-12 08:04:50 51°13.624 2°56.048 123.4   7 -999
2008-11-12 08:04:54 51°13.624 2°56.048 124 0.1 137 -999
2008-11-12 08:05:00 51°13.624 2°56.048 124.2   143 -999
2008-11-12 08:05:10 51°13.623 2°56.048 124.2   143 -999
2008-11-12 08:05:20 51°13.624 2°56.047 124.2   143 -999
2008-11-12 08:05:24 51°13.624 2°56.047 123.6 0.1 340 -999
2008-11-12 08:05:29 51°13.624 2°56.047 123.3 0.1 357 -999
2008-11-12 08:05:30 51°13.624 2°56.047 124.2   143 -999
2008-11-12 08:05:34 51°13.624 2°56.047 123.3 0.1 313 -999
2008-11-12 08:05:40 51°13.624 2°56.047 124.2   143 -999
2008-11-12 08:05:50 51°13.624 2°56.047 124.2   143 -999
2008-11-12 08:06:00 51°13.624 2°56.048 123.2   331 -999
2008-11-12 08:06:10 51°13.624 2°56.048 123.2   331 -999
2008-11-12 08:06:20 51°13.624 2°56.048 123.2   331 -999
2008-11-12 08:06:29 51°13.624 2°56.048 124 0.1 177 -999
2008-11-12 08:06:30 51°13.624 2°56.048 123.2   331 -999
2008-11-12 08:06:34 51°13.623 2°56.048 124.2 0.1 176 -999
2008-11-12 08:06:39 51°13.623 2°56.048 124.3 0.1 181 -999
2008-11-12 08:06:40 51°13.623 2°56.048 123.2   331 -999
2008-11-12 08:06:50 51°13.623 2°56.048 123.2   331 -999
2008-11-12 08:06:59 51°13.624 2°56.047 123 0.1 340 -999
2008-11-12 08:07:00 51°13.624 2°56.047 123 0.1 340 -999
2008-11-12 08:07:10 51°13.624 2°56.047 123 0.1 340 -999
2008-11-12 08:07:20 51°13.624 2°56.048 123 0.1 340 -999
2008-11-12 08:07:29 51°13.623 2°56.048 124.3 0.1 92 -999
2008-11-12 08:07:30 51°13.623 2°56.048 123 0.1 340 -999
2008-11-12 08:07:35 51°13.624 2°56.048 124.3 0.1 49 -999
2008-11-12 08:07:39 51°13.624 2°56.048 123.9 0.1 30 -999
2008-11-12 08:07:40 51°13.624 2°56.048 123 0.1 340 -999
2008-11-12 08:07:44 51°13.624 2°56.048 123.3 0.1 247 -999
2008-11-12 08:07:49 51°13.624 2°56.048 122.8 0.1 351 -999
2008-11-12 08:07:50 51°13.624 2°56.048 123 0.1 340 -999
2008-11-12 08:07:54 51°13.624 2°56.047 122.7 0.1 276 -999
2008-11-12 08:07:59 51°13.624 2°56.047 122.6 0.1 312 -999
2008-11-12 08:08:00 51°13.624 2°56.047 122.5 0.1 297 -999
2008-11-12 08:08:10 51°13.624 2°56.047 122.5 0.1 297 -999
2008-11-12 08:08:14 51°13.624 2°56.047 122.8 0.1 139 -999
2008-11-12 08:08:20 51°13.624 2°56.048 122.5 0.1 297 -999
2008-11-12 08:08:24 51°13.624 2°56.048 123.3 0.1 29 -999
2008-11-12 08:08:30 51°13.624 2°56.048 122.5 0.1 297 -999
2008-11-12 08:08:39 51°13.624 2°56.047 123.3 0.1 359 -999
2008-11-12 08:08:40 51°13.624 2°56.047 122.5 0.1 297 -999
2008-11-12 08:08:50 51°13.624 2°56.047 122.5 0.1 297 -999
2008-11-12 08:09:00 51°13.624 2°56.047 122.7   330 -999
2008-11-12 08:09:10 51°13.624 2°56.047 122.7   330 -999
2008-11-12 08:09:20 51°13.624 2°56.048 122.7   330 -999
2008-11-12 08:09:30 51°13.624 2°56.048 122.7   330 -999
2008-11-12 08:09:40 51°13.624 2°56.047 122.7   330 -999
2008-11-12 08:09:50 51°13.624 2°56.047 122.7   330 -999
2008-11-12 08:10:00 51°13.624 2°56.047 123.2   195 -999
2008-11-12 08:10:10 51°13.624 2°56.047 123.2   195 -999
2008-11-12 08:10:20 51°13.624 2°56.048 123.2   195 -999
2008-11-12 08:10:30 51°13.624 2°56.048 123.2   195 -999
2008-11-12 08:10:40 51°13.624 2°56.047 123.2   195 -999
2008-11-12 08:10:50 51°13.624 2°56.047 123.2   195 -999
2008-11-12 08:11:00 51°13.624 2°56.047 123.5   119 -999
2008-11-12 08:11:10 51°13.624 2°56.047 123.5   119 -999
2008-11-12 08:11:20 51°13.624 2°56.047 123.5   119 -999
2008-11-12 08:11:30 51°13.624 2°56.047 123.5   119 -999
2008-11-12 08:11:40 51°13.624 2°56.047 123.5   119 -999
2008-11-12 08:11:50 51°13.624 2°56.047 123.5   119 -999
2008-11-12 08:11:59 51°13.624 2°56.047 123.6 0.1 350 -999
2008-11-12 08:12:00 51°13.624 2°56.047 123.5 0.1 354 -999
2008-11-12 08:12:09 51°13.625 2°56.047 123.4 0.1 13 -999
2008-11-12 08:12:10 51°13.625 2°56.047 123.5 0.1 354 -999
2008-11-12 08:12:20 51°13.625 2°56.047 123.5 0.1 354 -999
2008-11-12 08:12:30 51°13.625 2°56.047 123.5 0.1 354 -999
2008-11-12 08:12:40 51°13.625 2°56.047 123.5 0.1 354 -999
2008-11-12 08:12:50 51°13.625 2°56.047 123.5 0.1 354 -999
2008-11-12 08:13:00 51°13.625 2°56.047 123.2   211 -999
2008-11-12 08:13:10 51°13.625 2°56.047 123.2   211 -999
2008-11-12 08:13:20 51°13.624 2°56.047 123.2   211 -999
2008-11-12 08:13:30 51°13.624 2°56.047 123.2   211 -999
2008-11-12 08:13:39 51°13.624 2°56.047 124.1 0.1 175 -999
2008-11-12 08:13:40 51°13.624 2°56.047 123.2   211 -999
2008-11-12 08:13:44 51°13.624 2°56.047 124.5 0.1 170 -999
2008-11-12 08:13:49 51°13.624 2°56.048 124.7 0.1 165 -999
2008-11-12 08:13:50 51°13.624 2°56.048 123.2   211 -999
2008-11-12 08:14:00 51°13.624 2°56.048 124.9   294 -999
2008-11-12 08:14:04 51°13.624 2°56.048 124.6 0.1 -999 -999
2008-11-12 08:14:09 51°13.624 2°56.048 124.4 0.1 347 -999
2008-11-12 08:14:10 51°13.624 2°56.048 124.9   294 -999
2008-11-12 08:14:14 51°13.624 2°56.048 124 0.1 4 -999
2008-11-12 08:14:19 51°13.624 2°56.048 123.9 0.1 278 -999
2008-11-12 08:14:20 51°13.624 2°56.048 124.9   294 -999
2008-11-12 08:14:30 51°13.624 2°56.048 124.9   294 -999
2008-11-12 08:14:40 51°13.624 2°56.048 124.9   294 -999
2008-11-12 08:14:50 51°13.624 2°56.048 124.9   294 -999
2008-11-12 08:15:00 51°13.624 2°56.048 122.9   256 -999
2008-11-12 08:15:10 51°13.624 2°56.048 122.9   256 -999
2008-11-12 08:15:20 51°13.624 2°56.048 122.9   256 -999
2008-11-12 08:15:30 51°13.624 2°56.048 122.9   256 -999
2008-11-12 08:15:40 51°13.624 2°56.048 122.9   256 -999
2008-11-12 08:15:50 51°13.624 2°56.048 122.9   256 -999
2008-11-12 08:16:00 51°13.624 2°56.048 122.9   4 -999
2008-11-12 08:16:09 51°13.624 2°56.048 122.8 0.1 350 -999
2008-11-12 08:16:10 51°13.624 2°56.048 122.9   4 -999
2008-11-12 08:16:20 51°13.624 2°56.048 122.9   4 -999
2008-11-12 08:16:30 51°13.624 2°56.048 122.9   4 -999
2008-11-12 08:16:40 51°13.624 2°56.048 122.9   4 -999
2008-11-12 08:16:50 51°13.624 2°56.048 122.9   4 -999
2008-11-12 08:17:00 51°13.624 2°56.048 123.4   170 -999
2008-11-12 08:17:10 51°13.624 2°56.048 123.4   170 -999
2008-11-12 08:17:20 51°13.624 2°56.049 123.4   170 -999
2008-11-12 08:17:30 51°13.624 2°56.048 123.4   170 -999
2008-11-12 08:17:40 51°13.624 2°56.048 123.4   170 -999
2008-11-12 08:17:50 51°13.624 2°56.048 123.4   170 -999
2008-11-12 08:18:00 51°13.624 2°56.048 123.9   26 -999
2008-11-12 08:18:10 51°13.623 2°56.048 123.9   26 -999
2008-11-12 08:18:20 51°13.623 2°56.048 123.9   26 -999
2008-11-12 08:18:30 51°13.623 2°56.048 123.9   26 -999
2008-11-12 08:18:40 51°13.623 2°56.048 123.9   26 -999
2008-11-12 08:18:50 51°13.623 2°56.048 123.9   26 -999
2008-11-12 08:19:00 51°13.624 2°56.048 123.7   313 -999
2008-11-12 08:19:10 51°13.624 2°56.048 123.7   313 -999
2008-11-12 08:19:20 51°13.624 2°56.048 123.7   313 -999
2008-11-12 08:19:30 51°13.624 2°56.048 123.7   313 -999
2008-11-12 08:19:34 51°13.624 2°56.048 123.3 0.1 351 8.4
2008-11-12 08:19:40 51°13.624 2°56.048 123.7   313 -999
2008-11-12 08:19:50 51°13.624 2°56.048 123.7   313 -999
2008-11-12 08:20:00 51°13.624 2°56.048 123   90 -999
2008-11-12 08:20:10 51°13.624 2°56.048 123   90 -999
2008-11-12 08:20:14 51°13.623 2°56.048 123.3 0.1 140 8.4
2008-11-12 08:20:20 51°13.623 2°56.047 123   90 -999
2008-11-12 08:20:30 51°13.622 2°56.047 123   90 -999
2008-11-12 08:20:40 51°13.623 2°56.047 123   90 -999
2008-11-12 08:20:50 51°13.623 2°56.047 123   90 -999
2008-11-12 08:21:00 51°13.624 2°56.047 124   318 -999
2008-11-12 08:21:10 51°13.623 2°56.047 124   318 -999
2008-11-12 08:21:20 51°13.624 2°56.047 124   318 -999
2008-11-12 08:21:30 51°13.624 2°56.048 124   318 -999
2008-11-12 08:21:40 51°13.624 2°56.048 124   318 -999
2008-11-12 08:21:50 51°13.624 2°56.047 124   318 -999
2008-11-12 08:22:00 51°13.624 2°56.047 123.4   316 -999
2008-11-12 08:22:10 51°13.623 2°56.047 123.4   316 -999
2008-11-12 08:22:20 51°13.624 2°56.047 123.4   316 -999
2008-11-12 08:22:30 51°13.624 2°56.047 123.4   316 -999
2008-11-12 08:22:40 51°13.624 2°56.047 123.4   316 -999
2008-11-12 08:22:50 51°13.624 2°56.047 123.4   316 -999
2008-11-12 08:23:00 51°13.624 2°56.048 123.4   133 -999
2008-11-12 08:23:10 51°13.624 2°56.048 123.4   133 -999
2008-11-12 08:23:20 51°13.624 2°56.048 123.4   133 -999
2008-11-12 08:23:30 51°13.624 2°56.048 123.4   133 -999
2008-11-12 08:23:40 51°13.624 2°56.048 123.4   133 -999
2008-11-12 08:23:44 51°13.624 2°56.048 123.9 0.1 14 8.5
2008-11-12 08:23:50 51°13.624 2°56.048 123.4   133 -999
2008-11-12 08:24:00 51°13.624 2°56.048 123.9   90 -999
2008-11-12 08:24:10 51°13.624 2°56.048 123.9   90 -999
2008-11-12 08:24:20 51°13.624 2°56.048 123.9   90 -999
2008-11-12 08:24:30 51°13.624 2°56.048 123.9   90 -999
2008-11-12 08:24:40 51°13.624 2°56.048 123.9   90 -999
2008-11-12 08:24:50 51°13.624 2°56.048 123.9   90 -999
2008-11-12 08:25:00 51°13.624 2°56.048 123.7   261 -999
2008-11-12 08:25:10 51°13.625 2°56.048 123.7   261 -999
2008-11-12 08:25:20 51°13.625 2°56.047 123.7   261 -999
2008-11-12 08:25:30 51°13.625 2°56.047 123.7   261 -999
2008-11-12 08:25:40 51°13.626 2°56.048 123.7   261 -999
2008-11-12 08:25:50 51°13.626 2°56.048 123.7   261 -999
2008-11-12 08:26:00 51°13.626 2°56.048 123   236 -999
2008-11-12 08:26:10 51°13.627 2°56.048 123   236 -999
2008-11-12 08:26:20 51°13.627 2°56.048 123   236 -999
2008-11-12 08:26:30 51°13.627 2°56.048 123   236 -999
2008-11-12 08:26:40 51°13.627 2°56.048 123   236 -999
2008-11-12 08:26:50 51°13.627 2°56.048 123   236 -999
2008-11-12 08:27:00 51°13.626 2°56.048 122.9   332 -999
2008-11-12 08:27:10 51°13.626 2°56.048 122.9   332 -999
2008-11-12 08:27:20 51°13.627 2°56.048 122.9   332 -999
2008-11-12 08:27:30 51°13.628 2°56.049 122.9   332 -999
2008-11-12 08:27:40 51°13.628 2°56.049 122.9   332 -999
2008-11-12 08:27:50 51°13.628 2°56.049 122.9   332 -999
2008-11-12 08:28:00 51°13.627 2°56.048 123.2   250 -999
2008-11-12 08:28:10 51°13.625 2°56.047 123.2   250 -999
2008-11-12 08:28:20 51°13.625 2°56.047 123.2   250 -999
2008-11-12 08:28:30 51°13.625 2°56.047 123.2   250 -999
2008-11-12 08:28:40 51°13.625 2°56.047 123.2   250 -999
2008-11-12 08:28:50 51°13.625 2°56.048 123.2   250 -999
2008-11-12 08:29:00 51°13.625 2°56.048 123.7   184 -999
2008-11-12 08:29:10 51°13.626 2°56.048 123.7   184 -999
2008-11-12 08:29:20 51°13.626 2°56.048 123.7   184 -999
2008-11-12 08:29:30 51°13.626 2°56.048 123.7   184 -999
2008-11-12 08:29:40 51°13.626 2°56.048 123.7   184 -999
2008-11-12 08:29:50 51°13.625 2°56.048 123.7   184 -999
2008-11-12 08:30:00 51°13.624 2°56.047 123.7   58 -999
2008-11-12 08:30:10 51°13.623 2°56.047 123.7   58 -999
2008-11-12 08:30:20 51°13.623 2°56.047 123.7   58 -999
2008-11-12 08:30:30 51°13.623 2°56.047 123.7   58 -999
2008-11-12 08:30:40 51°13.624 2°56.047 123.7   58 -999
2008-11-12 08:30:50 51°13.624 2°56.048 123.7   58 -999
2008-11-12 08:31:00 51°13.624 2°56.048 123.4   104 -999
2008-11-12 08:31:10 51°13.624 2°56.048 123.4   104 -999
2008-11-12 08:31:20 51°13.624 2°56.048 123.4   104 -999
2008-11-12 08:31:30 51°13.624 2°56.048 123.4   104 -999
2008-11-12 08:31:40 51°13.624 2°56.048 123.4   104 -999
2008-11-12 08:31:50 51°13.624 2°56.048 123.4   104 -999
2008-11-12 08:32:00 51°13.624 2°56.048 123.5   235 -999
2008-11-12 08:32:10 51°13.625 2°56.048 123.5   235 -999
2008-11-12 08:32:20 51°13.624 2°56.048 123.5   235 -999
2008-11-12 08:32:30 51°13.625 2°56.048 123.5   235 -999
2008-11-12 08:32:40 51°13.625 2°56.048 123.5   235 -999
2008-11-12 08:32:50 51°13.624 2°56.048 123.5   235 -999
2008-11-12 08:33:00 51°13.624 2°56.048 123.7   216 -999
2008-11-12 08:33:10 51°13.624 2°56.048 123.7   216 -999
2008-11-12 08:33:20 51°13.625 2°56.048 123.7   216 -999
2008-11-12 08:33:30 51°13.625 2°56.048 123.7   216 -999
2008-11-12 08:33:40 51°13.625 2°56.048 123.7   216 -999
2008-11-12 08:33:50 51°13.625 2°56.048 123.7   216 -999
2008-11-12 08:34:00 51°13.625 2°56.048 123.9   277 -999
2008-11-12 08:34:10 51°13.625 2°56.048 123.9   277 -999
2008-11-12 08:34:20 51°13.625 2°56.048 123.9   277 -999
2008-11-12 08:34:30 51°13.625 2°56.048 123.9   277 -999
2008-11-12 08:34:40 51°13.625 2°56.048 123.9   277 -999
2008-11-12 08:34:50 51°13.625 2°56.048 123.9   277 -999
2008-11-12 08:35:00 51°13.625 2°56.048 123.7   81 -999
2008-11-12 08:35:10 51°13.625 2°56.048 123.7   81 -999
2008-11-12 08:35:20 51°13.625 2°56.048 123.7   81 -999
2008-11-12 08:35:30 51°13.625 2°56.048 123.7   81 -999
2008-11-12 08:35:40 51°13.625 2°56.048 123.7   81 -999
2008-11-12 08:35:50 51°13.625 2°56.048 123.7   81 -999
2008-11-12 08:36:00 51°13.625 2°56.048 124   149 -999
2008-11-12 08:36:10 51°13.625 2°56.048 124   149 -999
2008-11-12 08:36:20 51°13.625 2°56.048 124   149 -999
2008-11-12 08:36:30 51°13.625 2°56.048 124   149 -999
2008-11-12 08:36:40 51°13.625 2°56.048 124   149 -999
2008-11-12 08:36:50 51°13.625 2°56.048 124   149 -999
2008-11-12 08:37:00 51°13.624 2°56.048 123.7   201 -999
2008-11-12 08:37:10 51°13.624 2°56.048 123.7   201 -999
2008-11-12 08:37:20 51°13.624 2°56.048 123.7   201 -999
2008-11-12 08:37:30 51°13.625 2°56.048 123.7   201 -999
2008-11-12 08:37:40 51°13.625 2°56.048 123.7   201 -999
2008-11-12 08:37:50 51°13.625 2°56.048 123.7   201 -999
2008-11-12 08:38:00 51°13.624 2°56.048 123.2   203 -999
2008-11-12 08:38:10 51°13.624 2°56.048 123.2   203 -999
2008-11-12 08:38:20 51°13.624 2°56.047 123.2   203 -999
2008-11-12 08:38:30 51°13.624 2°56.047 123.2   203 -999
2008-11-12 08:38:40 51°13.624 2°56.047 123.2   203 -999
2008-11-12 08:38:50 51°13.624 2°56.047 123.2   203 -999
2008-11-12 08:39:00 51°13.624 2°56.047 123.5   215 -999
2008-11-12 08:39:10 51°13.624 2°56.047 123.5   215 -999
2008-11-12 08:39:20 51°13.624 2°56.047 123.5   215 -999
2008-11-12 08:39:30 51°13.625 2°56.047 123.5   215 -999
2008-11-12 08:39:40 51°13.625 2°56.047 123.5   215 -999
2008-11-12 08:39:50 51°13.625 2°56.047 123.5   215 -999
2008-11-12 08:40:00 51°13.625 2°56.047 123.7   169 -999
2008-11-12 08:40:10 51°13.625 2°56.047 123.7   169 -999
2008-11-12 08:40:20 51°13.625 2°56.047 123.7   169 -999
2008-11-12 08:40:30 51°13.625 2°56.047 123.7   169 -999
2008-11-12 08:40:40 51°13.625 2°56.047 123.7   169 -999
2008-11-12 08:40:50 51°13.625 2°56.047 123.7   169 -999
2008-11-12 08:41:00 51°13.625 2°56.047 123.7   210 -999
2008-11-12 08:41:10 51°13.625 2°56.047 123.7   210 -999
2008-11-12 08:41:20 51°13.625 2°56.047 123.7   210 -999
2008-11-12 08:41:30 51°13.625 2°56.047 123.7   210 -999
2008-11-12 08:41:40 51°13.625 2°56.047 123.7   210 -999
2008-11-12 08:41:50 51°13.625 2°56.047 123.7   210 -999
2008-11-12 08:42:00 51°13.625 2°56.047 124   266 -999
2008-11-12 08:42:10 51°13.626 2°56.047 124   266 -999
2008-11-12 08:42:20 51°13.626 2°56.047 124   266 -999
2008-11-12 08:42:30 51°13.626 2°56.047 124   266 -999
2008-11-12 08:42:40 51°13.626 2°56.047 124   266 -999
2008-11-12 08:42:50 51°13.625 2°56.047 124   266 -999
2008-11-12 08:43:00 51°13.625 2°56.047 124   202 -999
2008-11-12 08:43:10 51°13.625 2°56.047 124   202 -999
2008-11-12 08:43:20 51°13.625 2°56.047 124   202 -999
2008-11-12 08:43:30 51°13.625 2°56.047 124   202 -999
2008-11-12 08:43:40 51°13.625 2°56.048 124   202 -999
2008-11-12 08:43:50 51°13.625 2°56.048 124   202 -999
2008-11-12 08:44:00 51°13.625 2°56.048 123.9   238 -999
2008-11-12 08:44:10 51°13.625 2°56.048 123.9   238 -999
2008-11-12 08:44:20 51°13.625 2°56.048 123.9   238 -999
2008-11-12 08:44:30 51°13.625 2°56.048 123.9   238 -999
2008-11-12 08:44:40 51°13.624 2°56.048 123.9   238 -999
2008-11-12 08:44:50 51°13.623 2°56.047 123.9   238 -999
2008-11-12 08:45:00 51°13.621 2°56.048 124   261 -999
2008-11-12 08:45:10 51°13.621 2°56.048 124   261 -999
2008-11-12 08:45:20 51°13.621 2°56.048 124   261 -999
2008-11-12 08:45:30 51°13.622 2°56.048 124   261 -999
2008-11-12 08:45:40 51°13.621 2°56.049 124   261 -999
2008-11-12 08:45:50 51°13.62 2°56.049 124   261 -999
2008-11-12 08:46:00 51°13.62 2°56.049 124.2   249 -999
2008-11-12 08:46:10 51°13.62 2°56.049 124.2   249 -999
2008-11-12 08:46:20 51°13.62 2°56.049 124.2   249 -999
2008-11-12 08:46:30 51°13.62 2°56.05 124.2   249 -999
2008-11-12 08:46:40 51°13.62 2°56.05 124.2   249 -999
2008-11-12 08:46:50 51°13.62 2°56.05 124.2   249 -999
2008-11-12 08:47:00 51°13.621 2°56.05 124.2   238 -999
2008-11-12 08:47:10 51°13.621 2°56.05 124.2   238 -999
2008-11-12 08:47:20 51°13.621 2°56.049 124.2   238 -999
2008-11-12 08:47:30 51°13.621 2°56.049 124.2   238 -999
2008-11-12 08:47:40 51°13.622 2°56.049 124.2   238 -999
2008-11-12 08:47:50 51°13.622 2°56.049 124.2   238 -999
2008-11-12 08:48:00 51°13.622 2°56.049 124.2   227 -999
2008-11-12 08:48:10 51°13.622 2°56.049 124.2   227 -999
2008-11-12 08:48:20 51°13.622 2°56.049 124.2   227 -999
2008-11-12 08:48:30 51°13.621 2°56.049 124.2   227 -999
2008-11-12 08:48:40 51°13.62 2°56.048 124.2   227 -999
2008-11-12 08:48:50 51°13.62 2°56.048 124.2   227 -999
2008-11-12 08:49:00 51°13.62 2°56.048 124.2   252 -999
2008-11-12 08:49:10 51°13.62 2°56.048 124.2   252 -999
2008-11-12 08:49:20 51°13.621 2°56.048 124.2   252 -999
2008-11-12 08:49:30 51°13.621 2°56.048 124.2   252 -999
2008-11-12 08:49:40 51°13.621 2°56.048 124.2   252 -999
2008-11-12 08:49:50 51°13.622 2°56.048 124.2   252 -999
2008-11-12 08:50:00 51°13.622 2°56.048 124.2   269 -999
2008-11-12 08:50:10 51°13.623 2°56.048 124.2   269 -999
2008-11-12 08:50:20 51°13.623 2°56.048 124.2   269 -999
2008-11-12 08:50:30 51°13.623 2°56.048 124.2   269 -999
2008-11-12 08:50:40 51°13.623 2°56.048 124.2   269 -999
2008-11-12 08:50:50 51°13.623 2°56.048 124.2   269 -999
2008-11-12 08:51:00 51°13.624 2°56.048 124.5   237 -999
2008-11-12 08:51:10 51°13.624 2°56.048 124.5   237 -999
2008-11-12 08:51:20 51°13.624 2°56.048 124.5   237 -999
2008-11-12 08:51:30 51°13.623 2°56.048 124.5   237 -999
2008-11-12 08:51:40 51°13.623 2°56.048 124.5   237 -999
2008-11-12 08:51:50 51°13.623 2°56.048 124.5   237 -999
2008-11-12 08:52:00 51°13.623 2°56.048 124.7   312 -999
2008-11-12 08:52:10 51°13.623 2°56.048 124.7   312 -999
2008-11-12 08:52:20 51°13.623 2°56.048 124.7   312 -999
2008-11-12 08:52:30 51°13.623 2°56.048 124.7   312 -999
2008-11-12 08:52:40 51°13.623 2°56.048 124.7   312 -999
2008-11-12 08:52:50 51°13.623 2°56.048 124.7   312 -999
2008-11-12 08:53:00 51°13.623 2°56.048 124.7   315 -999
2008-11-12 08:53:10 51°13.623 2°56.048 124.7   315 -999
2008-11-12 08:53:20 51°13.623 2°56.048 124.7   315 -999
2008-11-12 08:53:30 51°13.623 2°56.048 124.7   315 -999
2008-11-12 08:53:40 51°13.623 2°56.048 124.7   315 -999
2008-11-12 08:53:50 51°13.624 2°56.047 124.7   315 -999
2008-11-12 08:54:00 51°13.624 2°56.047 124.9   100 -999
2008-11-12 08:54:10 51°13.624 2°56.047 124.9   100 -999
2008-11-12 08:54:20 51°13.623 2°56.047 124.9   100 -999
2008-11-12 08:54:30 51°13.623 2°56.047 124.9   100 -999
2008-11-12 08:54:40 51°13.623 2°56.047 124.9   100 -999
2008-11-12 08:54:50 51°13.623 2°56.047 124.9   100 -999
2008-11-12 08:55:00 51°13.624 2°56.047 124.7   319 -999
2008-11-12 08:55:10 51°13.623 2°56.047 124.7   319 -999
2008-11-12 08:55:20 51°13.623 2°56.048 124.7   319 -999
2008-11-12 08:55:30 51°13.623 2°56.048 124.7   319 -999
2008-11-12 08:55:40 51°13.623 2°56.048 124.7   319 -999
2008-11-12 08:55:50 51°13.623 2°56.048 124.7   319 -999
2008-11-12 08:56:00 51°13.623 2°56.048 124.2   91 -999
2008-11-12 08:56:10 51°13.623 2°56.048 124.2   91 -999
2008-11-12 08:56:20 51°13.623 2°56.048 124.2   91 -999
2008-11-12 08:56:30 51°13.623 2°56.048 124.2   91 -999
2008-11-12 08:56:40 51°13.623 2°56.048 124.2   91 -999
2008-11-12 08:56:49 51°13.623 2°56.048 125.3 0.1 139 9
2008-11-12 08:56:50 51°13.623 2°56.048 124.2   91 -999
2008-11-12 08:56:54 51°13.623 2°56.048 125.4 0.1 164 9.1
2008-11-12 08:56:59 51°13.623 2°56.048 125.6 0.1 139 9.1
2008-11-12 08:57:00 51°13.623 2°56.048 125.5 0.1 139 -999
2008-11-12 08:57:04 51°13.623 2°56.049 125.8 0.1 127 9.1
2008-11-12 08:57:10 51°13.623 2°56.049 125.5 0.1 139 -999
2008-11-12 08:57:20 51°13.623 2°56.048 125.5 0.1 139 -999
2008-11-12 08:57:30 51°13.622 2°56.048 125.5 0.1 139 -999
2008-11-12 08:57:40 51°13.622 2°56.048 125.5 0.1 139 -999
2008-11-12 08:57:50 51°13.622 2°56.048 125.5 0.1 139 -999
2008-11-12 08:58:00 51°13.622 2°56.048 125.7   37 -999
2008-11-12 08:58:10 51°13.623 2°56.048 125.7   37 -999
2008-11-12 08:58:20 51°13.623 2°56.048 125.7   37 -999
2008-11-12 08:58:30 51°13.623 2°56.048 125.7   37 -999
2008-11-12 08:58:40 51°13.623 2°56.048 125.7   37 -999
2008-11-12 08:58:50 51°13.623 2°56.048 125.7   37 -999
2008-11-12 08:59:00 51°13.623 2°56.048 123.2   186 -999
2008-11-12 08:59:10 51°13.623 2°56.049 123.2   186 -999
2008-11-12 08:59:19 51°13.623 2°56.048 121 0.1 180 9.1
2008-11-12 08:59:20 51°13.623 2°56.048 123.2   186 -999
2008-11-12 08:59:30 51°13.623 2°56.049 123.2   186 -999
2008-11-12 08:59:40 51°13.623 2°56.049 123.2   186 -999
2008-11-12 08:59:50 51°13.623 2°56.049 123.2   186 -999
2008-11-12 09:00:00 51°13.623 2°56.049 118.7   230 -999
2008-11-12 09:00:10 51°13.622 2°56.048 118.7   230 -999
2008-11-12 09:00:14 51°13.622 2°56.048 118.1 0.1 195 9.2
2008-11-12 09:00:20 51°13.621 2°56.048 118.7   230 -999
2008-11-12 09:00:30 51°13.621 2°56.048 118.7   230 -999
2008-11-12 09:00:39 51°13.621 2°56.048 114.7 0.1 289 9.2
2008-11-12 09:00:40 51°13.621 2°56.048 118.7   230 -999
2008-11-12 09:00:44 51°13.622 2°56.048 114.2 0.1 311 9.2
2008-11-12 09:00:49 51°13.622 2°56.047 114.1 0.3 314 9.2
2008-11-12 09:00:50 51°13.623 2°56.047 118.7   230 -999
2008-11-12 09:00:54 51°13.623 2°56.046 114.4 0.5 304 9.2
2008-11-12 09:00:59 51°13.623 2°56.045 114.9 0.7 302 9.2
2008-11-12 09:01:00 51°13.624 2°56.045 114.9 0.69 302 -999
2008-11-12 09:01:04 51°13.624 2°56.043 115.5 1 300 9.1
2008-11-12 09:01:09 51°13.625 2°56.04 116 1.3 301 8.9
2008-11-12 09:01:10 51°13.625 2°56.04 114.9 0.69 302 -999
2008-11-12 09:01:14 51°13.626 2°56.037 116 1.6 298 9
2008-11-12 09:01:19 51°13.627 2°56.034 115.6 1.7 298 9.2
2008-11-12 09:01:20 51°13.627 2°56.034 114.9 0.69 302 -999
2008-11-12 09:01:24 51°13.628 2°56.03 115.3 1.8 296 4.9
2008-11-12 09:01:29 51°13.63 2°56.026 115 2 296 -999
2008-11-12 09:01:30 51°13.63 2°56.025 114.9 0.69 302 -999
2008-11-12 09:01:34 51°13.631 2°56.022 115.1 2.3 297 -999
2008-11-12 09:01:39 51°13.633 2°56.017 115.4 2.6 298 -999
2008-11-12 09:01:40 51°13.633 2°56.017 114.9 0.69 302 -999
2008-11-12 09:01:44 51°13.635 2°56.011 115.5 2.8 298 -999
2008-11-12 09:01:49 51°13.637 2°56.005 115.5 3.1 300 -999
2008-11-12 09:01:50 51°13.637 2°56.004 114.9 0.69 302 -999
2008-11-12 09:01:54 51°13.639 2°55.999 115.2 3.3 299 -999
2008-11-12 09:01:59 51°13.642 2°55.992 114.4 3.5 301 -999
2008-11-12 09:02:00 51°13.642 2°55.991 114.4 3.5 301 -999
2008-11-12 09:02:04 51°13.644 2°55.985 113.8 3.5 298 -999
2008-11-12 09:02:09 51°13.646 2°55.979 112.4 3.5 298 9.3
2008-11-12 09:02:10 51°13.647 2°55.977 114.4 3.5 301 -999
2008-11-12 09:02:14 51°13.648 2°55.971 110.5 3.5 294 -999
2008-11-12 09:02:19 51°13.65 2°55.964 108.6 3.6 295 -999
2008-11-12 09:02:20 51°13.65 2°55.964 114.4 3.5 301 -999
2008-11-12 09:02:24 51°13.652 2°55.956 107 3.8 292 -999
2008-11-12 09:02:29 51°13.655 2°55.948 106.5 4 291 -999
2008-11-12 09:02:30 51°13.655 2°55.946 114.4 3.5 301 -999
2008-11-12 09:02:34 51°13.656 2°55.939 105.7 4.1 289 -999
2008-11-12 09:02:39 51°13.658 2°55.93 105.1 4.2 290 -999
2008-11-12 09:02:40 51°13.659 2°55.929 114.4 3.5 301 -999
2008-11-12 09:02:44 51°13.66 2°55.922 104.9 4.1 288 -999
2008-11-12 09:02:49 51°13.662 2°55.914 104.2 4 289 -999
2008-11-12 09:02:50 51°13.662 2°55.912 114.4 3.5 301 -999
2008-11-12 09:02:54 51°13.663 2°55.905 103.4 3.9 287 -999
2008-11-12 09:02:59 51°13.665 2°55.897 102.6 3.8 286 11.5
2008-11-12 09:03:00 51°13.665 2°55.896 102.5 3.79 286 -999
2008-11-12 09:03:04 51°13.666 2°55.889 101.9 3.8 286 -999
2008-11-12 09:03:09 51°13.668 2°55.881 101.1 3.7 285 11.5
2008-11-12 09:03:10 51°13.668 2°55.88 102.5 3.79 286 -999
2008-11-12 09:03:14 51°13.669 2°55.873 100.2 3.7 284 11.2
2008-11-12 09:03:19 51°13.67 2°55.865 99.8 3.7 284 11.3
2008-11-12 09:03:20 51°13.671 2°55.864 102.5 3.79 286 -999
2008-11-12 09:03:24 51°13.671 2°55.858 99.5 3.6 284 11.3
2008-11-12 09:03:29 51°13.673 2°55.85 99.5 3.6 284 11.2
2008-11-12 09:03:30 51°13.673 2°55.848 102.5 3.79 286 -999
2008-11-12 09:03:34 51°13.674 2°55.842 99.4 3.6 284 -999
2008-11-12 09:03:39 51°13.675 2°55.835 99.4 3.6 284 11
2008-11-12 09:03:40 51°13.675 2°55.835 102.5 3.79 286 -999
2008-11-12 09:03:44 51°13.676 2°55.827 99.4 3.4 284 -999
2008-11-12 09:03:49 51°13.677 2°55.821 99.4 3.2 284 -999
2008-11-12 09:03:50 51°13.678 2°55.819 102.5 3.79 286 -999
2008-11-12 09:03:54 51°13.678 2°55.814 98.8 3 284 -999
2008-11-12 09:03:59 51°13.679 2°55.808 98 2.9 283 -999
2008-11-12 09:04:00 51°13.68 2°55.807 98 2.89 283 -999
2008-11-12 09:04:04 51°13.68 2°55.802 97.3 2.8 283 10.9
2008-11-12 09:04:09 51°13.681 2°55.796 96.9 2.7 283 11.5
2008-11-12 09:04:10 51°13.681 2°55.795 98 2.89 283 -999
2008-11-12 09:04:14 51°13.682 2°55.791 96.4 2.5 282 11.6
2008-11-12 09:04:19 51°13.682 2°55.786 95.9 2.4 282 12.4
2008-11-12 09:04:20 51°13.682 2°55.786 98 2.89 283 -999
2008-11-12 09:04:24 51°13.683 2°55.781 95.5 2.3 281 12.8
2008-11-12 09:04:29 51°13.684 2°55.776 95.1 2.2 282 12.6
2008-11-12 09:04:30 51°13.684 2°55.775 98 2.89 283 -999
2008-11-12 09:04:34 51°13.684 2°55.772 95 2.1 281 12.7
2008-11-12 09:04:39 51°13.685 2°55.767 95 2 282 12.4
2008-11-12 09:04:40 51°13.685 2°55.766 98 2.89 283 -999
2008-11-12 09:04:44 51°13.686 2°55.763 95 2 283 12.2
2008-11-12 09:04:49 51°13.686 2°55.759 95 1.7 284 12.3
2008-11-12 09:04:50 51°13.686 2°55.759 98 2.89 283 -999
2008-11-12 09:04:54 51°13.687 2°55.756 95 1.6 284 12.5
2008-11-12 09:04:59 51°13.687 2°55.753 94.6 1.4 285 12.6
2008-11-12 09:05:00 51°13.687 2°55.752 94.5 1.39 285 -999
2008-11-12 09:05:04 51°13.688 2°55.751 94 1.2 288 12.5
2008-11-12 09:05:09 51°13.688 2°55.749 93.3 0.8 289 12.5
2008-11-12 09:05:10 51°13.688 2°55.749 94.5 1.39 285 -999
2008-11-12 09:05:14 51°13.689 2°55.748 92 0.5 305 12.4
2008-11-12 09:05:19 51°13.689 2°55.748 89.7 0.3 337 12.5
2008-11-12 09:05:20 51°13.689 2°55.748 94.5 1.39 285 -999
2008-11-12 09:05:24 51°13.689 2°55.748 87.7 0.4 20 12.6
2008-11-12 09:05:29 51°13.69 2°55.749 84.8 0.5 53 12.6
2008-11-12 09:05:30 51°13.69 2°55.749 94.5 1.39 285 -999
2008-11-12 09:05:34 51°13.691 2°55.751 81.3 0.9 56 12.6
2008-11-12 09:05:39 51°13.691 2°55.753 77.4 1.1 59 12.8
2008-11-12 09:05:40 51°13.692 2°55.753 94.5 1.39 285 -999
2008-11-12 09:05:44 51°13.692 2°55.755 72.8 1.3 55 13
2008-11-12 09:05:49 51°13.694 2°55.758 67.9 1.5 53 13.3
2008-11-12 09:05:50 51°13.694 2°55.759 94.5 1.39 285 -999
2008-11-12 09:05:54 51°13.696 2°55.761 62.5 1.7 47 14.1
2008-11-12 09:05:59 51°13.698 2°55.764 55.9 1.9 42 14.3
2008-11-12 09:06:00 51°13.698 2°55.764 57 1.89 42 -999
2008-11-12 09:06:04 51°13.7 2°55.767 51.4 2 38 15.2
2008-11-12 09:06:09 51°13.703 2°55.769 45.8 2.2 33 15.3
2008-11-12 09:06:10 51°13.703 2°55.77 57 1.89 42 -999
2008-11-12 09:06:14 51°13.705 2°55.771 40.2 2.2 27 15
2008-11-12 09:06:19 51°13.708 2°55.773 34.6 2.1 20 14.7
2008-11-12 09:06:20 51°13.709 2°55.773 57 1.89 42 -999
2008-11-12 09:06:24 51°13.711 2°55.774 28.9 2 19 14.1
2008-11-12 09:06:29 51°13.713 2°55.775 26.4 1.8 11 14.3
2008-11-12 09:06:30 51°13.714 2°55.775 57 1.89 42 -999
2008-11-12 09:06:34 51°13.716 2°55.776 24.2 1.6 10 14.5
2008-11-12 09:06:39 51°13.717 2°55.776 22.1 1.4 1 14.5
2008-11-12 09:06:40 51°13.718 2°55.776 57 1.89 42 -999
2008-11-12 09:06:44 51°13.719 2°55.776 19.6 1.1 -999 14.6
2008-11-12 09:06:49 51°13.72 2°55.775 17 0.8 343 14.7
2008-11-12 09:06:50 51°13.72 2°55.775 57 1.89 42 -999
2008-11-12 09:06:54 51°13.721 2°55.775 14.4 0.5 329 14.4
2008-11-12 09:06:59 51°13.721 2°55.774 12.2 0.4 288 14.2
2008-11-12 09:07:00 51°13.721 2°55.774 12.1 0.4 288 -999
2008-11-12 09:07:04 51°13.72 2°55.773 10.4 0.4 244 14.1
2008-11-12 09:07:09 51°13.72 2°55.772 8.6 0.6 220 14.3
2008-11-12 09:07:10 51°13.719 2°55.772 12.1 0.4 288 -999
2008-11-12 09:07:14 51°13.719 2°55.771 6.7 0.8 209 14.3
2008-11-12 09:07:19 51°13.717 2°55.77 4.5 1 202 14.4
2008-11-12 09:07:20 51°13.717 2°55.77 12.1 0.4 288 -999
2008-11-12 09:07:24 51°13.716 2°55.77 3 1.1 198 5.4
2008-11-12 09:07:29 51°13.715 2°55.769 0.6 1.1 200 -999
2008-11-12 09:07:30 51°13.714 2°55.769 12.1 0.4 288 -999
2008-11-12 09:07:34 51°13.713 2°55.768 359.2 1 199 -999
2008-11-12 09:07:39 51°13.712 2°55.767 358.8 0.8 212 4.9
2008-11-12 09:07:40 51°13.712 2°55.767 12.1 0.4 288 -999
2008-11-12 09:07:44 51°13.712 2°55.766 358.6 0.5 224 14.8
2008-11-12 09:07:49 51°13.712 2°55.765 357.7 0.4 280 14.8
2008-11-12 09:07:50 51°13.712 2°55.765 12.1 0.4 288 -999
2008-11-12 09:07:54 51°13.713 2°55.764 356 0.7 324 14.8
2008-11-12 09:07:59 51°13.715 2°55.763 353.1 1.1 328 14.8
2008-11-12 09:08:00 51°13.715 2°55.762 353.1 1.1 328 -999
2008-11-12 09:08:04 51°13.716 2°55.761 349.5 1.3 331 14.7
2008-11-12 09:08:09 51°13.718 2°55.759 345.1 1.6 330 14.6
2008-11-12 09:08:10 51°13.719 2°55.759 353.1 1.1 328 -999
2008-11-12 09:08:14 51°13.721 2°55.757 339.9 2 326 14.3
2008-11-12 09:08:19 51°13.723 2°55.754 334.3 2.2 323 14.7
2008-11-12 09:08:20 51°13.724 2°55.753 353.1 1.1 328 -999
2008-11-12 09:08:24 51°13.726 2°55.75 329.6 2.4 322 14.7
2008-11-12 09:08:29 51°13.729 2°55.746 326.4 2.6 319 14.5
2008-11-12 09:08:30 51°13.729 2°55.746 353.1 1.1 328 -999
2008-11-12 09:08:34 51°13.732 2°55.742 324.3 3 319 14.3
2008-11-12 09:08:39 51°13.735 2°55.737 323 3.3 318 14.1
2008-11-12 09:08:40 51°13.736 2°55.736 353.1 1.1 328 -999
2008-11-12 09:08:44 51°13.739 2°55.732 322.5 3.5 319 14.2
2008-11-12 09:08:49 51°13.743 2°55.727 322.7 3.7 320 13.7
2008-11-12 09:08:50 51°13.744 2°55.726 353.1 1.1 328 -999
2008-11-12 09:08:54 51°13.747 2°55.721 322.8 3.9 320 13.4
2008-11-12 09:08:59 51°13.752 2°55.716 322.9 4.1 321 12.8
2008-11-12 09:09:00 51°13.752 2°55.715 322.8 4.09 321 -999
2008-11-12 09:09:04 51°13.756 2°55.71 323 4.2 321 12.6
2008-11-12 09:09:09 51°13.761 2°55.704 323 4.4 322 12.4
2008-11-12 09:09:10 51°13.762 2°55.702 322.8 4.09 321 -999
2008-11-12 09:09:14 51°13.766 2°55.698 323.2 4.5 322 12.4
2008-11-12 09:09:19 51°13.771 2°55.692 323.7 4.6 323 12.3
2008-11-12 09:09:20 51°13.772 2°55.69 322.8 4.09 321 -999
2008-11-12 09:09:24 51°13.776 2°55.685 324.5 4.7 324 12.5
2008-11-12 09:09:29 51°13.782 2°55.679 325.6 4.8 325 12.5
2008-11-12 09:09:30 51°13.783 2°55.678 322.8 4.09 321 -999
2008-11-12 09:09:34 51°13.788 2°55.674 326.6 5 327 12.3
2008-11-12 09:09:39 51°13.794 2°55.668 327.9 5 328 12.5
2008-11-12 09:09:40 51°13.795 2°55.666 322.8 4.09 321 -999
2008-11-12 09:09:44 51°13.8 2°55.662 329 5.1 329 12.5
2008-11-12 09:09:49 51°13.806 2°55.657 330 5.2 330 12.8
2008-11-12 09:09:50 51°13.807 2°55.656 322.8 4.09 321 -999
2008-11-12 09:09:54 51°13.812 2°55.651 330.1 5.4 331 12.9
2008-11-12 09:09:59 51°13.819 2°55.646 330.6 5.5 332 12.8
2008-11-12 09:10:00 51°13.82 2°55.644 330.6 5.5 332 -999
2008-11-12 09:10:04 51°13.826 2°55.64 331.3 5.6 333 13.1
2008-11-12 09:10:09 51°13.833 2°55.634 332.2 5.7 334 12.8
2008-11-12 09:10:10 51°13.834 2°55.633 330.6 5.5 332 -999
2008-11-12 09:10:14 51°13.84 2°55.629 333 5.8 335 12.7
2008-11-12 09:10:19 51°13.847 2°55.623 333.6 5.8 334 12.7
2008-11-12 09:10:20 51°13.848 2°55.622 330.6 5.5 332 -999
2008-11-12 09:10:24 51°13.854 2°55.618 333.5 5.9 333 12.7
2008-11-12 09:10:29 51°13.862 2°55.611 332.8 6 333 12.6
2008-11-12 09:10:30 51°13.863 2°55.61 330.6 5.5 332 -999
2008-11-12 09:10:34 51°13.869 2°55.605 332.5 6.1 334 12.9
2008-11-12 09:10:39 51°13.877 2°55.599 332.6 6.1 334 12.7
2008-11-12 09:10:40 51°13.878 2°55.598 330.6 5.5 332 -999
2008-11-12 09:10:44 51°13.885 2°55.593 333.1 6.1 334 12.7
2008-11-12 09:10:49 51°13.892 2°55.587 333.9 6.2 334 12.7
2008-11-12 09:10:50 51°13.894 2°55.586 330.6 5.5 332 -999
2008-11-12 09:10:54 51°13.9 2°55.581 334.7 6.2 335 12.5
2008-11-12 09:10:59 51°13.908 2°55.575 335.4 6.2 334 12.7
2008-11-12 09:11:00 51°13.909 2°55.574 335.3 6.2 334 -999
2008-11-12 09:11:04 51°13.916 2°55.569 335.5 6.1 335 12.9
2008-11-12 09:11:09 51°13.923 2°55.564 335.3 5.9 334 12.8
2008-11-12 09:11:10 51°13.925 2°55.563 335.3 6.2 334 -999
2008-11-12 09:11:14 51°13.93 2°55.559 335.2 5.8 335 12.7
2008-11-12 09:11:19 51°13.938 2°55.553 335.2 5.7 335 12.7
2008-11-12 09:11:20 51°13.939 2°55.552 335.3 6.2 334 -999
2008-11-12 09:11:24 51°13.945 2°55.548 335.3 5.6 336 12.7
2008-11-12 09:11:29 51°13.952 2°55.544 335.9 5.5 337 12.6
2008-11-12 09:11:30 51°13.953 2°55.543 335.3 6.2 334 -999
2008-11-12 09:11:34 51°13.959 2°55.539 336.7 5.4 338 12.7
2008-11-12 09:11:39 51°13.966 2°55.535 337.5 5.4 338 12.6
2008-11-12 09:11:40 51°13.967 2°55.534 335.3 6.2 334 -999
2008-11-12 09:11:44 51°13.973 2°55.531 338 5.3 339 12.6
2008-11-12 09:11:49 51°13.98 2°55.526 338.1 5.3 339 12.5
2008-11-12 09:11:50 51°13.981 2°55.526 335.3 6.2 334 -999
2008-11-12 09:11:54 51°13.986 2°55.522 338.1 5.3 339 12.5
2008-11-12 09:11:59 51°13.993 2°55.518 337.8 5.2 339 12.5
2008-11-12 09:12:00 51°13.994 2°55.517 337.8 5.2 339 -999
2008-11-12 09:12:04 51°14 2°55.514 337.4 5.2 338 12.4
2008-11-12 09:12:09 51°14.007 2°55.509 337.2 5.2 338 12.5
2008-11-12 09:12:10 51°14.008 2°55.509 337.8 5.2 339 -999
2008-11-12 09:12:14 51°14.013 2°55.505 337.1 5.2 338 12.3
2008-11-12 09:12:19 51°14.02 2°55.501 337 5.1 338 12.3
2008-11-12 09:12:20 51°14.021 2°55.5 337.8 5.2 339 -999
2008-11-12 09:12:24 51°14.026 2°55.497 337 5.1 338 12.3
2008-11-12 09:12:29 51°14.033 2°55.493 337 5.1 338 12.2
2008-11-12 09:12:30 51°14.034 2°55.492 337.8 5.2 339 -999
2008-11-12 09:12:34 51°14.039 2°55.488 337 5.1 337 12.2
2008-11-12 09:12:39 51°14.046 2°55.484 337.2 5.1 337 12.1
2008-11-12 09:12:40 51°14.047 2°55.483 337.8 5.2 339 -999
2008-11-12 09:12:44 51°14.052 2°55.479 337.3 5.1 337 12.3
2008-11-12 09:12:49 51°14.059 2°55.475 336.5 5.1 337 12.3
2008-11-12 09:12:50 51°14.06 2°55.474 337.8 5.2 339 -999
2008-11-12 09:12:54 51°14.065 2°55.47 335.7 5.2 335 12.3
2008-11-12 09:12:59 51°14.072 2°55.465 334.8 5.4 335 12.3
2008-11-12 09:13:00 51°14.073 2°55.464 334.8 5.4 335 -999
2008-11-12 09:13:04 51°14.079 2°55.46 334.3 5.5 334 12.3
2008-11-12 09:13:09 51°14.086 2°55.454 333.6 5.8 334 12.2
2008-11-12 09:13:10 51°14.088 2°55.453 334.8 5.4 335 -999
2008-11-12 09:13:14 51°14.094 2°55.448 333.3 5.9 333 12.2
2008-11-12 09:13:19 51°14.101 2°55.442 333.2 6 333 12.3
2008-11-12 09:13:20 51°14.103 2°55.441 334.8 5.4 335 -999
2008-11-12 09:13:24 51°14.109 2°55.436 333.2 6.1 333 12.3
2008-11-12 09:13:29 51°14.117 2°55.429 332.9 6.4 332 12.3
2008-11-12 09:13:30 51°14.118 2°55.428 334.8 5.4 335 -999
2008-11-12 09:13:34 51°14.125 2°55.422 332 6.7 331 12.3
2008-11-12 09:13:39 51°14.133 2°55.415 331.4 6.8 331 12.3
2008-11-12 09:13:40 51°14.135 2°55.413 334.8 5.4 335 -999
2008-11-12 09:13:44 51°14.142 2°55.407 331.1 7 330 12.5
2008-11-12 09:13:49 51°14.15 2°55.4 330.9 7.2 330 12.3
2008-11-12 09:13:50 51°14.152 2°55.398 334.8 5.4 335 -999
2008-11-12 09:13:54 51°14.159 2°55.391 330.4 7.3 328 12.3
2008-11-12 09:13:59 51°14.168 2°55.382 328.8 7.4 327 12.4
2008-11-12 09:14:00 51°14.169 2°55.38 328.8 7.4 327 -999
2008-11-12 09:14:04 51°14.176 2°55.373 327.2 7.5 327 12.4
2008-11-12 09:14:09 51°14.185 2°55.363 326.6 7.6 326 12.4
2008-11-12 09:14:10 51°14.187 2°55.362 328.8 7.4 327 -999
2008-11-12 09:14:14 51°14.193 2°55.354 326.4 7.6 325 12.8
2008-11-12 09:14:19 51°14.202 2°55.343 325.1 7.7 323 12.4
2008-11-12 09:14:20 51°14.204 2°55.341 328.8 7.4 327 -999
2008-11-12 09:14:24 51°14.21 2°55.333 323.1 7.8 322 12.5
2008-11-12 09:14:29 51°14.219 2°55.322 321.7 7.8 321 12.6
2008-11-12 09:14:30 51°14.22 2°55.32 328.8 7.4 327 -999
2008-11-12 09:14:34 51°14.227 2°55.311 321.1 7.8 321 12.6
2008-11-12 09:14:39 51°14.235 2°55.299 320.7 7.8 319 12.7
2008-11-12 09:14:40 51°14.237 2°55.297 328.8 7.4 327 -999
2008-11-12 09:14:44 51°14.244 2°55.288 319.5 7.8 318 12.4
2008-11-12 09:14:49 51°14.251 2°55.276 317.8 7.8 318 12.3
2008-11-12 09:14:50 51°14.253 2°55.274 328.8 7.4 327 -999
2008-11-12 09:14:54 51°14.259 2°55.264 317 7.8 317 12.2
2008-11-12 09:14:59 51°14.267 2°55.253 316.8 7.9 317 12.2
2008-11-12 09:15:00 51°14.269 2°55.25 316.8 7.9 317 -999
2008-11-12 09:15:04 51°14.275 2°55.24 316.3 7.9 315 12.1
2008-11-12 09:15:09 51°14.283 2°55.228 315.1 7.9 314 12.1
2008-11-12 09:15:10 51°14.284 2°55.225 316.8 7.9 317 -999
2008-11-12 09:15:14 51°14.29 2°55.215 313.8 7.8 312 12
2008-11-12 09:15:19 51°14.297 2°55.202 312.3 7.8 312 12.2
2008-11-12 09:15:20 51°14.299 2°55.199 316.8 7.9 317 -999
2008-11-12 09:15:24 51°14.304 2°55.189 311.1 7.8 311 12.3
2008-11-12 09:15:29 51°14.312 2°55.175 310 7.8 310 12.1
2008-11-12 09:15:30 51°14.313 2°55.173 316.8 7.9 317 -999
2008-11-12 09:15:34 51°14.318 2°55.162 309.1 7.8 309 12.2
2008-11-12 09:15:39 51°14.325 2°55.149 308.4 7.8 309 12.4
2008-11-12 09:15:40 51°14.326 2°55.146 316.8 7.9 317 -999
2008-11-12 09:15:44 51°14.332 2°55.135 308.2 7.8 310 12.3
2008-11-12 09:15:49 51°14.339 2°55.122 308.2 7.9 308 12.4
2008-11-12 09:15:50 51°14.34 2°55.119 316.8 7.9 317 -999
2008-11-12 09:15:54 51°14.346 2°55.108 307.6 7.9 309 12.6
2008-11-12 09:15:59 51°14.352 2°55.094 306.7 7.9 308 12.6
2008-11-12 09:16:00 51°14.353 2°55.092 306.8 7.9 308 -999
2008-11-12 09:16:04 51°14.359 2°55.081 306.1 7.9 310 12.6
2008-11-12 09:16:09 51°14.366 2°55.068 306.5 7.8 312 12.6
2008-11-12 09:16:10 51°14.368 2°55.066 306.8 7.9 308 -999
2008-11-12 09:16:14 51°14.374 2°55.056 307.6 7.8 315 12.7
2008-11-12 09:16:19 51°14.382 2°55.044 309.7 7.8 316 12.5
2008-11-12 09:16:20 51°14.383 2°55.042 306.8 7.9 308 -999
2008-11-12 09:16:24 51°14.39 2°55.032 311.7 7.8 317 12.3
2008-11-12 09:16:29 51°14.398 2°55.021 312.4 7.9 318 12.3
2008-11-12 09:16:30 51°14.399 2°55.018 306.8 7.9 308 -999
2008-11-12 09:16:34 51°14.406 2°55.009 312.6 8.1 319 12.3
2008-11-12 09:16:39 51°14.415 2°54.997 313 8.3 320 12.4
2008-11-12 09:16:40 51°14.417 2°54.995 306.8 7.9 308 -999
2008-11-12 09:16:44 51°14.424 2°54.986 313.9 8.3 320 12.3
2008-11-12 09:16:49 51°14.433 2°54.974 315 8.4 323 12.6
2008-11-12 09:16:50 51°14.436 2°54.972 306.8 7.9 308 -999
2008-11-12 09:16:54 51°14.443 2°54.962 316.4 8.6 321 12.4
2008-11-12 09:16:59 51°14.452 2°54.951 316.4 8.5 322 12
2008-11-12 09:17:00 51°14.454 2°54.948 316.5 8.5 322 -999
2008-11-12 09:17:04 51°14.462 2°54.939 315.8 8.6 321 12.4
2008-11-12 09:17:09 51°14.471 2°54.927 315.6 8.7 322 12.2
2008-11-12 09:17:10 51°14.473 2°54.924 316.5 8.5 322 -999
2008-11-12 09:17:14 51°14.481 2°54.915 315.7 8.8 325 12.1
2008-11-12 09:17:19 51°14.492 2°54.905 318.2 8.9 327 12.1
2008-11-12 09:17:20 51°14.494 2°54.903 316.5 8.5 322 -999
2008-11-12 09:17:24 51°14.502 2°54.894 320.7 9 328 11.8
2008-11-12 09:17:29 51°14.513 2°54.885 322.2 8.9 331 11.9
2008-11-12 09:17:30 51°14.515 2°54.883 316.5 8.5 322 -999
2008-11-12 09:17:34 51°14.524 2°54.875 323.9 9 331 12.1
2008-11-12 09:17:39 51°14.535 2°54.866 325.4 9.1 335 11.9
2008-11-12 09:17:40 51°14.538 2°54.865 316.5 8.5 322 -999
2008-11-12 09:17:44 51°14.547 2°54.858 328.3 9.1 337 11.7
2008-11-12 09:17:49 51°14.559 2°54.851 330.5 9.2 339 11.4
2008-11-12 09:17:50 51°14.561 2°54.85 316.5 8.5 322 -999
2008-11-12 09:17:54 51°14.571 2°54.845 332.3 9.1 340 11.8
2008-11-12 09:17:59 51°14.583 2°54.839 333.8 9.2 343 11.7
2008-11-12 09:18:00 51°14.585 2°54.838 333.8 9.19 343 -999
2008-11-12 09:18:04 51°14.595 2°54.833 335.9 9.2 343 11.4
2008-11-12 09:18:09 51°14.608 2°54.828 337.1 9.2 344 11.7
2008-11-12 09:18:10 51°14.61 2°54.827 333.8 9.19 343 -999
2008-11-12 09:18:14 51°14.62 2°54.823 338.9 9.3 346 11.6
2008-11-12 09:18:19 51°14.633 2°54.818 340 9.3 346 11.4
2008-11-12 09:18:20 51°14.633 2°54.818 333.8 9.19 343 -999
2008-11-12 09:18:24 51°14.646 2°54.814 340.7 9.4 348 11.6
2008-11-12 09:18:29 51°14.658 2°54.81 342 9.4 349 11.6
2008-11-12 09:18:30 51°14.661 2°54.809 333.8 9.19 343 -999
2008-11-12 09:18:34 51°14.672 2°54.807 343.7 9.4 351 11.5
2008-11-12 09:18:39 51°14.684 2°54.804 344.9 9.3 352 11.3
2008-11-12 09:18:40 51°14.687 2°54.803 333.8 9.19 343 -999
2008-11-12 09:18:44 51°14.697 2°54.801 345.8 9.3 352 11.6
2008-11-12 09:18:49 51°14.71 2°54.799 346.6 9.4 353 11.4
2008-11-12 09:18:50 51°14.713 2°54.798 333.8 9.19 343 -999
2008-11-12 09:18:54 51°14.723 2°54.797 347.2 9.3 354 11.1
2008-11-12 09:18:59 51°14.736 2°54.795 347.7 9.3 354 11.6
2008-11-12 09:19:00 51°14.738 2°54.794 347.6 9.3 354 -999
2008-11-12 09:19:04 51°14.748 2°54.792 348.1 9.3 354 11.4
2008-11-12 09:19:09 51°14.761 2°54.791 348.3 9.3 354 11.3
2008-11-12 09:19:10 51°14.764 2°54.79 347.6 9.3 354 -999
2008-11-12 09:19:14 51°14.774 2°54.788 348.3 9.4 354 11.5
2008-11-12 09:19:19 51°14.787 2°54.786 347.6 9.4 353 11.2
2008-11-12 09:19:20 51°14.79 2°54.785 347.6 9.3 354 -999
2008-11-12 09:19:24 51°14.8 2°54.783 347.4 9.4 353 11
2008-11-12 09:19:29 51°14.813 2°54.781 347.5 9.4 354 10.9
2008-11-12 09:19:30 51°14.815 2°54.78 347.6 9.3 354 -999
2008-11-12 09:19:34 51°14.825 2°54.779 347.3 9.2 353 11.2
2008-11-12 09:19:39 51°14.838 2°54.776 346.4 9.3 353 11.4
2008-11-12 09:19:40 51°14.841 2°54.775 347.6 9.3 354 -999
2008-11-12 09:19:44 51°14.851 2°54.773 346.5 9.3 352 11.3
2008-11-12 09:19:49 51°14.864 2°54.77 346.5 9.4 351 11.3
2008-11-12 09:19:50 51°14.867 2°54.769 347.6 9.3 354 -999
2008-11-12 09:19:54 51°14.877 2°54.767 346.1 9.4 351 11.4
2008-11-12 09:19:59 51°14.89 2°54.764 345.2 9.4 351 11.3
2008-11-12 09:20:00 51°14.892 2°54.763 345.3 9.4 351 -999
2008-11-12 09:20:04 51°14.903 2°54.761 344.5 9.4 351 11.4
2008-11-12 09:20:09 51°14.916 2°54.757 345 9.5 351 11.1
2008-11-12 09:20:10 51°14.918 2°54.757 345.3 9.4 351 -999
2008-11-12 09:20:14 51°14.929 2°54.754 345.1 9.5 350 10.9
2008-11-12 09:20:19 51°14.942 2°54.75 344.6 9.6 351 11.1
2008-11-12 09:20:20 51°14.944 2°54.749 345.3 9.4 351 -999
2008-11-12 09:20:24 51°14.955 2°54.747 344.6 9.6 351 10.9
2008-11-12 09:20:29 51°14.967 2°54.744 344.8 9.4 352 10.8
2008-11-12 09:20:30 51°14.97 2°54.743 345.3 9.4 351 -999
2008-11-12 09:20:34 51°14.98 2°54.74 344.5 9.3 350 11.1
2008-11-12 09:20:39 51°14.993 2°54.737 344.7 9.4 352 11.1
2008-11-12 09:20:40 51°14.996 2°54.737 345.3 9.4 351 -999
2008-11-12 09:20:44 51°15.006 2°54.734 344.6 9.4 351 10.8
2008-11-12 09:20:49 51°15.019 2°54.731 344.1 9.5 351 10.7
2008-11-12 09:20:50 51°15.022 2°54.73 345.3 9.4 351 -999
2008-11-12 09:20:54 51°15.032 2°54.727 344.6 9.5 350 10.8
2008-11-12 09:20:59 51°15.045 2°54.724 344.4 9.5 350 10.7
2008-11-12 09:21:00 51°15.048 2°54.723 344.3 9.5 350 -999
2008-11-12 09:21:04 51°15.058 2°54.72 344.3 9.4 350 10.8
2008-11-12 09:21:09 51°15.071 2°54.717 343.9 9.3 351 10.8
2008-11-12 09:21:10 51°15.074 2°54.717 344.3 9.5 350 -999
2008-11-12 09:21:14 51°15.084 2°54.714 343.9 9.5 350 10.4
2008-11-12 09:21:19 51°15.097 2°54.711 343.9 9.3 351 10.3
2008-11-12 09:21:20 51°15.097 2°54.711 344.3 9.5 350 -999
2008-11-12 09:21:24 51°15.109 2°54.707 343.6 9.3 350 10.4
2008-11-12 09:21:29 51°15.123 2°54.704 343 9.5 351 10.3
2008-11-12 09:21:30 51°15.125 2°54.703 344.3 9.5 350 -999
2008-11-12 09:21:34 51°15.135 2°54.7 343.2 9.4 350 9.9
2008-11-12 09:21:39 51°15.148 2°54.697 343.6 9.4 350 10.2
2008-11-12 09:21:40 51°15.151 2°54.696 344.3 9.5 350 -999
2008-11-12 09:21:44 51°15.161 2°54.693 342.9 9.4 350 10.3
2008-11-12 09:21:49 51°15.174 2°54.689 342.2 9.5 349 10.2
2008-11-12 09:21:50 51°15.177 2°54.688 344.3 9.5 350 -999
2008-11-12 09:21:54 51°15.187 2°54.685 341.8 9.5 350 10.5
2008-11-12 09:21:59 51°15.2 2°54.681 341.8 9.4 348 10.1
2008-11-12 09:22:00 51°15.202 2°54.68 341.6 9.4 348 -999
2008-11-12 09:22:04 51°15.213 2°54.676 341.2 9.5 349 10.4
2008-11-12 09:22:09 51°15.225 2°54.672 341.2 9.5 348 10.4
2008-11-12 09:22:10 51°15.228 2°54.671 341.6 9.4 348 -999
2008-11-12 09:22:14 51°15.238 2°54.668 341 9.4 348 10.6
2008-11-12 09:22:19 51°15.251 2°54.663 340.9 9.5 348 10.9
2008-11-12 09:22:20 51°15.251 2°54.663 341.6 9.4 348 -999
2008-11-12 09:22:24 51°15.264 2°54.659 340.8 9.5 348 10.6
2008-11-12 09:22:29 51°15.277 2°54.654 340.5 9.6 348 10.4
2008-11-12 09:22:30 51°15.28 2°54.653 341.6 9.4 348 -999
2008-11-12 09:22:34 51°15.29 2°54.65 340.6 9.4 347 10.6
2008-11-12 09:22:39 51°15.303 2°54.644 340.2 9.5 346 10.8
2008-11-12 09:22:40 51°15.305 2°54.644 341.6 9.4 348 -999
2008-11-12 09:22:44 51°15.316 2°54.64 339.6 9.5 347 10.7
2008-11-12 09:22:49 51°15.329 2°54.635 339.6 9.6 347 10.9
2008-11-12 09:22:50 51°15.331 2°54.634 341.6 9.4 348 -999
2008-11-12 09:22:54 51°15.342 2°54.63 339.7 9.5 347 10.6
2008-11-12 09:22:59 51°15.354 2°54.626 339.6 9.3 346 10.8
2008-11-12 09:23:00 51°15.354 2°54.626 339.6 9.3 346 -999
2008-11-12 09:23:04 51°15.367 2°54.621 339.7 9.3 346 11.2
2008-11-12 09:23:09 51°15.379 2°54.615 339.5 9.3 345 11.3
2008-11-12 09:23:10 51°15.382 2°54.614 339.6 9.3 346 -999
2008-11-12 09:23:14 51°15.392 2°54.61 338.6 9.4 345 11.2
2008-11-12 09:23:19 51°15.405 2°54.605 338.8 9.4 346 11
2008-11-12 09:23:20 51°15.407 2°54.604 339.6 9.3 346 -999
2008-11-12 09:23:24 51°15.417 2°54.6 339.4 9.3 347 11
2008-11-12 09:23:29 51°15.43 2°54.595 339.6 9.4 345 11.1
2008-11-12 09:23:30 51°15.432 2°54.594 339.6 9.3 346 -999
2008-11-12 09:23:34 51°15.442 2°54.59 339.3 9.2 345 11.1
2008-11-12 09:23:39 51°15.454 2°54.585 338.8 9.2 345 11.3
2008-11-12 09:23:40 51°15.457 2°54.584 339.6 9.3 346 -999
2008-11-12 09:23:44 51°15.467 2°54.58 338.6 9.3 346 11.4
2008-11-12 09:23:49 51°15.479 2°54.575 339.1 9.2 346 11
2008-11-12 09:23:50 51°15.482 2°54.574 339.6 9.3 346 -999
2008-11-12 09:23:54 51°15.492 2°54.57 339.3 9.2 346 11.3
2008-11-12 09:23:59 51°15.504 2°54.565 339.3 9.1 345 11.6
2008-11-12 09:24:00 51°15.507 2°54.564 339.3 9.09 345 -999
2008-11-12 09:24:04 51°15.517 2°54.56 339 9.2 345 11.8
2008-11-12 09:24:09 51°15.529 2°54.555 338.6 9.3 345 11.5
2008-11-12 09:24:10 51°15.531 2°54.554 339.3 9.09 345 -999
2008-11-12 09:24:14 51°15.541 2°54.55 339 9.2 346 11.7
2008-11-12 09:24:19 51°15.554 2°54.545 339.2 9.2 346 11.7
2008-11-12 09:24:20 51°15.556 2°54.544 339.3 9.09 345 -999
2008-11-12 09:24:24 51°15.566 2°54.539 339.1 9.2 344 11.7
2008-11-12 09:24:29 51°15.579 2°54.534 338.4 9.3 346 11.5
2008-11-12 09:24:30 51°15.581 2°54.533 339.3 9.09 345 -999
2008-11-12 09:24:34 51°15.591 2°54.529 339.1 9.1 346 11.6
2008-11-12 09:24:39 51°15.603 2°54.524 339.3 9.1 344 12
2008-11-12 09:24:40 51°15.606 2°54.523 339.3 9.09 345 -999
2008-11-12 09:24:44 51°15.615 2°54.519 339 9 347 11.9
2008-11-12 09:24:49 51°15.628 2°54.514 339.9 9.2 345 11.8
2008-11-12 09:24:50 51°15.63 2°54.513 339.3 9.09 345 -999
2008-11-12 09:24:54 51°15.64 2°54.509 339.6 9.1 345 11.6
2008-11-12 09:24:59 51°15.652 2°54.504 339.6 9.1 346 11.9
2008-11-12 09:25:00 51°15.655 2°54.503 339.6 9.09 346 -999
2008-11-12 09:25:04 51°15.664 2°54.499 339.3 9.2 345 12.1
2008-11-12 09:25:09 51°15.677 2°54.494 338.4 9.3 347 12.3
2008-11-12 09:25:10 51°15.68 2°54.493 339.6 9.09 346 -999
2008-11-12 09:25:14 51°15.69 2°54.489 339.3 9.3 346 12
2008-11-12 09:25:19 51°15.702 2°54.484 339.9 9.3 345 11.9
2008-11-12 09:25:20 51°15.702 2°54.484 339.6 9.09 346 -999
2008-11-12 09:25:24 51°15.714 2°54.479 339.7 9.3 346 11.9
2008-11-12 09:25:29 51°15.727 2°54.474 340.1 9.3 346 12.3
2008-11-12 09:25:30 51°15.729 2°54.473 339.6 9.09 346 -999
2008-11-12 09:25:34 51°15.739 2°54.47 339.8 9.3 347 12.4
2008-11-12 09:25:39 51°15.752 2°54.465 340.1 9.4 346 12.5
2008-11-12 09:25:40 51°15.755 2°54.463 339.6 9.09 346 -999
2008-11-12 09:25:44 51°15.765 2°54.459 339.8 9.4 346 12.3
2008-11-12 09:25:49 51°15.778 2°54.455 340.2 9.5 347 12.3
2008-11-12 09:25:50 51°15.78 2°54.453 339.6 9.09 346 -999
2008-11-12 09:25:54 51°15.79 2°54.45 340.3 9.3 347 12.4
2008-11-12 09:25:59 51°15.803 2°54.444 340.3 9.4 346 12.6
2008-11-12 09:26:00 51°15.803 2°54.444 340.3 9.4 346 -999
2008-11-12 09:26:04 51°15.816 2°54.439 340.2 9.4 346 12.5
2008-11-12 09:26:09 51°15.828 2°54.434 340 9.4 346 12.5
2008-11-12 09:26:10 51°15.831 2°54.433 340.3 9.4 346 -999
2008-11-12 09:26:14 51°15.841 2°54.429 340 9.5 347 12.7
2008-11-12 09:26:19 51°15.854 2°54.424 340.3 9.5 346 12.6
2008-11-12 09:26:20 51°15.854 2°54.424 340.3 9.4 346 -999
2008-11-12 09:26:24 51°15.866 2°54.42 340.3 9.4 349 12.4
2008-11-12 09:26:29 51°15.879 2°54.416 340.8 9.1 347 12.8
2008-11-12 09:26:30 51°15.881 2°54.415 340.3 9.4 346 -999
2008-11-12 09:26:34 51°15.891 2°54.412 340.7 9.2 348 12.7
2008-11-12 09:26:39 51°15.903 2°54.407 341 9.1 346 12.5
2008-11-12 09:26:40 51°15.906 2°54.406 340.3 9.4 346 -999
2008-11-12 09:26:44 51°15.916 2°54.403 340.9 9.1 348 12.6
2008-11-12 09:26:49 51°15.928 2°54.398 340.5 9.1 346 12.9
2008-11-12 09:26:50 51°15.931 2°54.397 340.3 9.4 346 -999
2008-11-12 09:26:54 51°15.94 2°54.393 340.4 8.7 347 12.8
2008-11-12 09:26:59 51°15.951 2°54.39 340.2 8 348 12.9
2008-11-12 09:27:00 51°15.951 2°54.39 340.1 8 348 -999
2008-11-12 09:27:04 51°15.961 2°54.386 339.8 7.8 348 13
2008-11-12 09:27:09 51°15.971 2°54.383 339.6 7.1 349 13.3
2008-11-12 09:27:10 51°15.973 2°54.383 340.1 8 348 -999
2008-11-12 09:27:14 51°15.98 2°54.38 339.5 6.8 348 13.5
2008-11-12 09:27:19 51°15.989 2°54.377 339.1 6.5 350 13.2
2008-11-12 09:27:20 51°15.989 2°54.377 340.1 8 348 -999
2008-11-12 09:27:24 51°15.997 2°54.375 339.1 6.3 349 13.2
2008-11-12 09:27:29 51°16.006 2°54.372 338.9 6.1 351 13.3
2008-11-12 09:27:30 51°16.006 2°54.372 340.1 8 348 -999
2008-11-12 09:27:34 51°16.014 2°54.371 338.8 6 352 13.2
2008-11-12 09:27:39 51°16.022 2°54.369 338.9 5.7 352 13.1
2008-11-12 09:27:40 51°16.022 2°54.369 340.1 8 348 -999
2008-11-12 09:27:44 51°16.029 2°54.367 339.4 5.6 352 12.8
2008-11-12 09:27:49 51°16.036 2°54.366 339 5.3 352 13.2
2008-11-12 09:27:50 51°16.038 2°54.365 340.1 8 348 -999
2008-11-12 09:27:54 51°16.044 2°54.363 338.5 5.2 350 13.3
2008-11-12 09:27:59 51°16.05 2°54.362 338.2 5.1 351 13.3
2008-11-12 09:28:00 51°16.052 2°54.362 338.1 5.09 351 -999
2008-11-12 09:28:04 51°16.057 2°54.36 337.5 5 350 13.5
2008-11-12 09:28:09 51°16.064 2°54.358 336.7 4.9 351 13.7
2008-11-12 09:28:10 51°16.065 2°54.358 338.1 5.09 351 -999
2008-11-12 09:28:14 51°16.071 2°54.356 336.3 4.7 349 13.5
2008-11-12 09:28:19 51°16.077 2°54.355 335.8 4.7 350 13.5
2008-11-12 09:28:20 51°16.079 2°54.354 338.1 5.09 351 -999
2008-11-12 09:28:24 51°16.084 2°54.353 335.2 4.7 349 13.4
2008-11-12 09:28:29 51°16.09 2°54.352 335.2 4.5 351 13.6
2008-11-12 09:28:30 51°16.091 2°54.351 338.1 5.09 351 -999
2008-11-12 09:28:34 51°16.096 2°54.35 334.6 4.3 349 13.5
2008-11-12 09:28:39 51°16.102 2°54.348 334.6 4.3 350 13.4
2008-11-12 09:28:40 51°16.103 2°54.348 338.1 5.09 351 -999
2008-11-12 09:28:44 51°16.108 2°54.347 333.8 4.4 349 13.3
2008-11-12 09:28:49 51°16.114 2°54.345 332.3 4.3 350 13.5
2008-11-12 09:28:50 51°16.115 2°54.345 338.1 5.09 351 -999
2008-11-12 09:28:54 51°16.12 2°54.343 331.8 4.2 349 13.2
2008-11-12 09:28:59 51°16.125 2°54.341 331.8 4.2 348 13.4
2008-11-12 09:29:00 51°16.127 2°54.341 331.8 4.2 348 -999
2008-11-12 09:29:04 51°16.131 2°54.339 331 4.2 348 13.3
2008-11-12 09:29:09 51°16.136 2°54.337 330 4 345 13.5
2008-11-12 09:29:10 51°16.137 2°54.337 331.8 4.2 348 -999
2008-11-12 09:29:14 51°16.142 2°54.335 328.2 4 346 13.6
2008-11-12 09:29:19 51°16.147 2°54.333 326.4 3.9 345 13.9
2008-11-12 09:29:20 51°16.147 2°54.333 331.8 4.2 348 -999
2008-11-12 09:29:24 51°16.152 2°54.33 324.2 3.8 343 13.5
2008-11-12 09:29:29 51°16.157 2°54.328 322.9 3.6 342 13.7
2008-11-12 09:29:30 51°16.158 2°54.328 331.8 4.2 348 -999
2008-11-12 09:29:34 51°16.161 2°54.326 321.3 3.5 341 13.7
2008-11-12 09:29:39 51°16.166 2°54.323 319.7 3.5 339 13.6
2008-11-12 09:29:40 51°16.166 2°54.323 331.8 4.2 348 -999
2008-11-12 09:29:44 51°16.17 2°54.32 317.5 3.4 337 13.5
2008-11-12 09:29:49 51°16.175 2°54.317 315 3.2 337 13.5
2008-11-12 09:29:50 51°16.176 2°54.317 331.8 4.2 348 -999
2008-11-12 09:29:54 51°16.179 2°54.314 313.4 3.2 334 13.6
2008-11-12 09:29:59 51°16.183 2°54.311 312 3.1 332 13.4
2008-11-12 09:30:00 51°16.183 2°54.311 312 3.1 332 -999
2008-11-12 09:30:04 51°16.186 2°54.307 310.7 3.2 331 13.4
2008-11-12 09:30:09 51°16.19 2°54.304 309.1 3.1 328 13.4
2008-11-12 09:30:10 51°16.191 2°54.303 312 3.1 332 -999
2008-11-12 09:30:14 51°16.194 2°54.3 308.3 3.1 329 13.5
2008-11-12 09:30:19 51°16.198 2°54.297 307.3 3.1 330 13.6
2008-11-12 09:30:20 51°16.199 2°54.296 312 3.1 332 -999
2008-11-12 09:30:24 51°16.201 2°54.293 306.8 3.1 327 13.6
2008-11-12 09:30:29 51°16.205 2°54.29 306.2 3 327 13.5
2008-11-12 09:30:30 51°16.205 2°54.29 312 3.1 332 -999
2008-11-12 09:30:34 51°16.208 2°54.287 305.7 2.8 330 13.5
2008-11-12 09:30:39 51°16.211 2°54.284 304 2.5 327 13.4
2008-11-12 09:30:40 51°16.211 2°54.284 312 3.1 332 -999
2008-11-12 09:30:44 51°16.214 2°54.281 301.8 2.4 332 13.4
2008-11-12 09:30:49 51°16.216 2°54.279 300.1 2.2 329 13.2
2008-11-12 09:30:50 51°16.216 2°54.279 312 3.1 332 -999
2008-11-12 09:30:54 51°16.219 2°54.277 299.1 1.9 337 13.4
2008-11-12 09:30:59 51°16.221 2°54.276 298.3 1.6 339 13.5
2008-11-12 09:31:00 51°16.221 2°54.276 298.3 1.6 339 -999
2008-11-12 09:31:04 51°16.223 2°54.275 297.9 1.7 342 13.5
2008-11-12 09:31:09 51°16.225 2°54.274 297.5 1.5 345 13.6
2008-11-12 09:31:10 51°16.225 2°54.274 298.3 1.6 339 -999
2008-11-12 09:31:14 51°16.227 2°54.274 297.6 1.5 352 13.6
2008-11-12 09:31:19 51°16.229 2°54.273 297.9 1.3 353 13.6
2008-11-12 09:31:20 51°16.229 2°54.273 298.3 1.6 339 -999
2008-11-12 09:31:24 51°16.23 2°54.273 298 1.3 357 13.5
2008-11-12 09:31:29 51°16.232 2°54.273 298.1 1.2 2 13.5
2008-11-12 09:31:30 51°16.233 2°54.273 298.3 1.6 339 -999
2008-11-12 09:31:34 51°16.234 2°54.273 298.7 1.2 4 13.5
2008-11-12 09:31:39 51°16.236 2°54.274 299.7 1.2 11 13.6
2008-11-12 09:31:40 51°16.236 2°54.274 298.3 1.6 339 -999
2008-11-12 09:31:44 51°16.237 2°54.274 300.4 1.1 18 13.6
2008-11-12 09:31:49 51°16.239 2°54.276 301.2 1.3 25 13.8
2008-11-12 09:31:50 51°16.239 2°54.276 298.3 1.6 339 -999
2008-11-12 09:31:54 51°16.24 2°54.276 302.2 1.2 28 13.6
2008-11-12 09:31:59 51°16.242 2°54.278 303.7 1.2 34 13.4
2008-11-12 09:32:00 51°16.242 2°54.278 303.6 1.19 34 -999
2008-11-12 09:32:04 51°16.243 2°54.28 305.3 1.3 33 13.5
2008-11-12 09:32:09 51°16.244 2°54.282 306.2 1.3 40 13.3
2008-11-12 09:32:10 51°16.245 2°54.282 303.6 1.19 34 -999
2008-11-12 09:32:14 51°16.246 2°54.283 307.7 1.3 43 13.2
2008-11-12 09:32:19 51°16.247 2°54.285 309.1 1.3 44 13.4
2008-11-12 09:32:20 51°16.247 2°54.285 303.6 1.19 34 -999
2008-11-12 09:32:24 51°16.248 2°54.288 310.4 1.3 44 13.4
2008-11-12 09:32:29 51°16.25 2°54.29 311.4 1.3 44 13.7
2008-11-12 09:32:30 51°16.25 2°54.29 303.6 1.19 34 -999
2008-11-12 09:32:34 51°16.251 2°54.292 312 1.4 53 13.6
2008-11-12 09:32:39 51°16.252 2°54.295 312.8 1.4 55 13.6
2008-11-12 09:32:40 51°16.252 2°54.295 303.6 1.19 34 -999
2008-11-12 09:32:44 51°16.253 2°54.297 313.9 1.4 55 13.5
2008-11-12 09:32:49 51°16.254 2°54.3 315.4 1.4 59 13.5
2008-11-12 09:32:50 51°16.254 2°54.3 303.6 1.19 34 -999
2008-11-12 09:32:54 51°16.255 2°54.303 316.1 1.4 62 13.5
2008-11-12 09:32:59 51°16.256 2°54.306 316.9 1.5 63 13.6
2008-11-12 09:33:00 51°16.256 2°54.306 316.5 1.5 63 -999
2008-11-12 09:33:04 51°16.257 2°54.309 317.4 1.5 58 13.5
2008-11-12 09:33:09 51°16.258 2°54.312 318.2 1.6 63 13.6
2008-11-12 09:33:10 51°16.258 2°54.312 316.5 1.5 63 -999
2008-11-12 09:33:14 51°16.259 2°54.315 319.2 1.6 65 13.5
2008-11-12 09:33:19 51°16.26 2°54.318 320.5 1.6 65 13.3
2008-11-12 09:33:20 51°16.26 2°54.318 316.5 1.5 63 -999
2008-11-12 09:33:24 51°16.261 2°54.321 321.8 1.6 66 13.4
2008-11-12 09:33:29 51°16.262 2°54.324 322.9 1.6 67 13.6
2008-11-12 09:33:30 51°16.262 2°54.325 316.5 1.5 63 -999
2008-11-12 09:33:34 51°16.263 2°54.328 323.6 1.7 65 13.5
2008-11-12 09:33:39 51°16.264 2°54.332 324.4 1.8 64 13.4
2008-11-12 09:33:40 51°16.264 2°54.332 316.5 1.5 63 -999